H1 CPF 2 NER 2024 5 15 9 136 01 glonass147 H2 2311401 9147 57517 2024 5 15 0 0 0 2024 5 18 23 45 0 900 1 1 0 0 0 1 H9 10 0 60445 0.00000 0 18691415.423 17211269.767 2436785.154 10 0 60445 900.00000 0 18876415.206 17159735.322 -778579.861 10 0 60445 1800.00000 0 18751948.782 16844794.627 -3978841.588 10 0 60445 2700.00000 0 18288245.409 16313722.102 -7101900.486 10 0 60445 3600.00000 0 17467301.097 15620203.585 -10087107.601 10 0 60445 4500.00000 0 16283845.229 14821920.373 -12876443.045 10 0 60445 5400.00000 0 14745786.820 13977977.936 -15415646.679 10 0 60445 6300.00000 0 12874119.498 13146287.746 -17655278.650 10 0 60445 7200.00000 0 10702286.998 12381012.927 -19551688.598 10 0 60445 8100.00000 0 8275033.593 11730185.945 -21067874.150 10 0 60445 9000.00000 0 5646785.598 11233599.523 -22174211.381 10 0 60445 9900.00000 0 2879629.932 10921060.599 -22849042.353 10 0 60445 10800.00000 0 40972.804 10811081.923 -23079107.649 10 0 60445 11700.00000 0 -2799024.754 10910067.455 -22859814.819 10 0 60445 12600.00000 0 -5570128.146 11212026.897 -22195336.813 10 0 60445 13500.00000 0 -8204715.765 11698832.194 -21098537.875 10 0 60445 14400.00000 0 -10640358.855 12341005.843 -19590727.711 10 0 60445 15300.00000 0 -12822186.950 13099008.064 -17701248.297 10 0 60445 16200.00000 0 -14704940.017 13924968.524 -15466901.048 10 0 60445 17100.00000 0 -16254621.586 14764789.175 -12931225.445 10 0 60445 18000.00000 0 -17449683.878 15560528.642 -10143643.406 10 0 60445 18900.00000 0 -18281695.899 16252966.454 -7158486.590 10 0 60445 19800.00000 0 -18755467.437 16784237.524 -4033926.388 10 0 60445 20700.00000 0 -18888625.136 17100424.224 -830828.552 10 0 60445 21600.00000 0 -18710660.259 17153995.248 2388443.990 10 0 60445 22500.00000 0 -18261490.235 16905987.159 5561255.552 10 0 60445 23400.00000 0 -17589596.782 16327835.673 8625924.255 10 0 60445 24300.00000 0 -16749821.150 15402778.999 11522925.885 10 0 60445 25200.00000 0 -15800911.294 14126773.981 14196051.031 10 0 60445 26100.00000 0 -14802925.787 12508886.671 16593492.741 10 0 60445 27000.00000 0 -13814604.741 10571141.342 18668843.870 10 0 60445 27900.00000 0 -12890818.682 8347834.686 20381985.494 10 0 60445 28800.00000 0 -12080202.375 5884344.264 21699850.276 10 0 60445 29700.00000 0 -11423072.179 3235481.067 22597047.384 10 0 60445 30600.00000 0 -10949713.084 463454.616 23056338.448 10 0 60445 31500.00000 0 -10679105.839 -2364465.369 23068956.842 10 0 60445 32400.00000 0 -10618146.002 -5178494.663 22634765.473 10 0 60445 33300.00000 0 -10761386.296 -7908983.416 21762251.088 10 0 60445 34200.00000 0 -11091312.042 -10489060.072 20468355.846 10 0 60445 35100.00000 0 -11579137.498 -12857162.646 18778149.604 10 0 60445 36000.00000 0 -12186089.629 -14959354.301 16724349.006 10 0 60445 36900.00000 0 -12865125.740 -16751328.931 14346692.022 10 0 60445 37800.00000 0 -13563013.552 -18200025.008 11691179.086 10 0 60445 38700.00000 0 -14222687.238 -19284781.799 8809194.312 10 0 60445 39600.00000 0 -14785781.258 -19997990.598 5756522.643 10 0 60445 40500.00000 0 -15195236.219 -20345214.265 2592280.729 10 0 60445 41400.00000 0 -15397867.539 -20344770.178 -622218.737 10 0 60445 42300.00000 0 -15346788.805 -20026793.872 -3824648.007 10 0 60445 43200.00000 0 -15003587.356 -19431822.267 -6952868.192 10 0 60445 44100.00000 0 -14340159.507 -18608955.534 -9946133.018 10 0 60445 45000.00000 0 -13340126.730 -17613674.419 -12746269.004 10 0 60445 45900.00000 0 -11999771.365 -16505404.531 -15298808.925 10 0 60445 46800.00000 0 -10328450.385 -15344929.907 -17554056.189 10 0 60445 47700.00000 0 -8348467.536 -14191764.793 -19468058.872 10 0 60445 48600.00000 0 -6094406.867 -13101594.551 -21003473.956 10 0 60445 49500.00000 0 -3611953.320 -12123893.839 -22130304.327 10 0 60445 50400.00000 0 -956247.715 -11299822.967 -22826493.540 10 0 60445 51300.00000 0 1810156.803 -10660491.664 -23078366.133 10 0 60445 52200.00000 0 4619652.910 -10225664.084 -22880904.243 10 0 60445 53100.00000 0 7402154.296 -10002960.280 -22237854.444 10 0 60445 54000.00000 0 10087781.046 -9987588.349 -21161662.092 10 0 60445 54900.00000 0 12609543.388 -10162618.930 -19673233.835 10 0 60445 55800.00000 0 14905911.715 -10499790.625 -17801532.437 10 0 60445 56700.00000 0 16923165.409 -10960812.196 -15583011.517 10 0 60445 57600.00000 0 18617422.073 -11499106.066 -13060901.104 10 0 60445 58500.00000 0 19956262.232 -12061918.664 -10284358.159 10 0 60445 59400.00000 0 20919881.631 -12592707.271 -7307499.149 10 0 60445 60300.00000 0 21501723.379 -13033701.119 -4188334.276 10 0 60445 61200.00000 0 21708564.371 -13328526.941 -987625.272 10 0 60445 62100.00000 0 21560053.746 -13424786.480 2232309.814 10 0 60445 63000.00000 0 21087724.538 -13276475.622 5408820.252 10 0 60445 63900.00000 0 20333522.074 -12846141.854 8480149.638 10 0 60445 64800.00000 0 19347913.130 -12106688.171 11386641.416 10 0 60445 65700.00000 0 18187657.339 -11042746.949 14071898.825 10 0 60445 66600.00000 0 16913336.285 -9651565.843 16483876.450 10 0 60445 67500.00000 0 15586745.332 -7943368.645 18575882.459 10 0 60445 68400.00000 0 14268258.392 -5941176.233 20307472.758 10 0 60445 69300.00000 0 13014276.228 -3680095.444 21645220.824 10 0 60445 70200.00000 0 11874864.679 -1206105.703 22563349.686 10 0 60445 71100.00000 0 10891680.603 1425606.120 23044215.376 10 0 60445 72000.00000 0 10096270.897 4152693.758 23078633.998 10 0 60445 72900.00000 0 9508814.037 6907998.281 22666047.472 10 0 60445 73800.00000 0 9137355.093 9622097.334 21814525.799 10 0 60445 74700.00000 0 8977564.732 12225952.677 20540606.492 10 0 60445 75600.00000 0 9013031.110 14653547.979 18868974.461 10 0 60445 76500.00000 0 9216071.711 16844409.305 16831988.341 10 0 60445 77400.00000 0 9549030.831 18745905.399 14469061.769 10 0 60445 78300.00000 0 9966008.438 20315233.768 11825910.653 10 0 60445 79200.00000 0 10414948.288 21521011.173 8953679.815 10 0 60445 80100.00000 0 10839998.177 22344403.126 5907964.734 10 0 60445 81000.00000 0 11184043.669 22779745.705 2747746.144 10 0 60445 81900.00000 0 11391309.156 22834633.787 -465742.906 10 0 60445 82800.00000 0 11409916.814 22529471.737 -3670196.335 10 0 60445 83700.00000 0 11194295.408 21896504.904 -6803438.342 10 0 60445 84600.00000 0 10707336.719 20978371.931 -9804627.672 10 0 60445 85500.00000 0 9922207.518 19826238.017 -12615439.424 10 0 60446 0.00000 0 8823739.259 18497587.117 -15181201.068 10 0 60446 900.00000 0 7409334.321 17053764.677 -17451961.529 10 0 60446 1800.00000 0 5689349.970 15557375.785 -19383468.689 10 0 60446 2700.00000 0 3686939.567 14069645.698 -20938040.314 10 0 60446 3600.00000 0 1437356.650 12647855.578 -22085307.353 10 0 60446 4500.00000 0 -1013251.710 11342960.893 -22802815.932 10 0 60446 5400.00000 0 -3609513.718 10197493.096 -23076475.405 10 0 60446 6300.00000 0 -6288895.711 9243833.278 -22900843.089 10 0 60446 7200.00000 0 -8984074.105 8502930.844 -22279239.449 10 0 60446 8100.00000 0 -11625518.205 7983521.448 -21223690.832 10 0 60446 9000.00000 0 -14144176.446 7681877.298 -19754700.283 10 0 60446 9900.00000 0 -16474153.911 7582100.303 -17900850.399 10 0 60446 10800.00000 0 -18555269.078 7656945.390 -15698245.666 10 0 60446 11700.00000 0 -20335382.557 7869138.604 -13189805.005 10 0 60446 12600.00000 0 -21772400.040 8173133.396 -10424418.534 10 0 60446 13500.00000 0 -22835865.405 8517229.621 -7455985.477 10 0 60446 14400.00000 0 -23508077.306 8845964.179 -4342352.698 10 0 60446 15300.00000 0 -23784682.874 9102670.512 -1144175.680 10 0 60446 16200.00000 0 -23674724.530 9232097.038 2076274.690 10 0 60446 17100.00000 0 -23200139.275 9182972.159 5256334.974 10 0 60446 18000.00000 0 -22394733.178 8910406.043 8334176.650 10 0 60446 18900.00000 0 -21302676.053 8378026.648 11250013.269 10 0 60446 19800.00000 0 -19976581.477 7559759.152 13947263.188 10 0 60446 20700.00000 0 -18475254.535 6441173.454 16373644.976 10 0 60446 21600.00000 0 -16861203.251 5020343.036 18482184.470 10 0 60446 22500.00000 0 -15198018.885 3308179.283 20232114.602 10 0 60446 23400.00000 0 -13547735.198 1328227.513 21589651.638 10 0 60446 24300.00000 0 -11968276.809 -884066.575 22528634.169 10 0 60446 25200.00000 0 -10511102.419 -3282589.437 23031014.009 10 0 60446 26100.00000 0 -9219139.932 -5812240.163 23087191.050 10 0 60446 27000.00000 0 -8125097.976 -8410989.650 22696186.937 10 0 60446 27900.00000 0 -7250222.393 -11012233.996 21865655.311 10 0 60446 28800.00000 0 -6603547.814 -13547345.727 20611729.077 10 0 60446 29700.00000 0 -6181673.966 -15948318.572 18958707.918 10 0 60446 30600.00000 0 -5969074.790 -18150397.756 16938591.846 10 0 60446 31500.00000 0 -5938926.658 -20094588.194 14590469.237 10 0 60446 32400.00000 0 -6054420.582 -21729937.889 11959770.244 10 0 60446 33300.00000 0 -6270503.417 -23015502.733 9097398.885 10 0 60446 34200.00000 0 -6535975.229 -23921911.696 6058759.413 10 0 60446 35100.00000 0 -6795855.068 -24432467.526 2902694.642 10 0 60446 36000.00000 0 -6993915.990 -24543737.023 -309644.247 10 0 60446 36900.00000 0 -7075282.768 -24265605.826 -3515975.290 10 0 60446 37800.00000 0 -6988982.716 -23620794.811 -6654088.450 10 0 60446 38700.00000 0 -6690341.589 -22643857.577 -9663050.371 10 0 60446 39600.00000 0 -6143122.621 -21379700.195 -12484387.812 10 0 60446 40500.00000 0 -5321317.142 -19881684.519 -15063226.560 10 0 60446 41400.00000 0 -4210509.564 -18209393.951 -17349363.377 10 0 60446 42300.00000 0 -2808757.176 -16426154.926 -19298249.589 10 0 60446 43200.00000 0 -1126945.430 -14596417.804 -20871866.708 10 0 60446 44100.00000 0 811398.614 -12783106.975 -22039476.403 10 0 60446 45000.00000 0 2970829.218 -11045051.421 -22778229.614 10 0 60446 45900.00000 0 5305213.140 -9434603.743 -23073622.285 10 0 60446 46800.00000 0 7759419.435 -7995547.810 -22919788.189 10 0 60446 47700.00000 0 10271398.663 -6761383.141 -22319622.435 10 0 60446 48600.00000 0 12774565.649 -5754058.237 -21284732.625 10 0 60446 49500.00000 0 15200386.837 -4983206.125 -19835217.963 10 0 60446 50400.00000 0 17481064.221 -4445914.123 -17999280.149 10 0 60446 51300.00000 0 19552203.456 -4127037.058 -15812673.285 10 0 60446 52200.00000 0 21355354.146 -4000040.010 -13318003.414 10 0 60446 53100.00000 0 22840315.353 -4028333.971 -10563891.513 10 0 60446 54000.00000 0 23967109.302 -4167046.656 -7604016.746 10 0 60446 54900.00000 0 24707540.207 -4365152.014 -4496059.387 10 0 60446 55800.00000 0 25046272.828 -4567866.611 -1300565.064 10 0 60446 56700.00000 0 24981385.924 -4719209.646 1920246.308 10 0 60446 57600.00000 0 24524378.204 -4764616.541 5103702.476 10 0 60446 58500.00000 0 23699627.802 -4653493.917 8187906.599 10 0 60446 59400.00000 0 22543329.527 -4341606.715 11112945.919 10 0 60446 60300.00000 0 21101956.218 -3793195.653 13822057.177 10 0 60446 61200.00000 0 19430310.444 -2982735.199 16262725.802 10 0 60446 62100.00000 0 17589249.679 -1896257.812 18387697.728 10 0 60446 63000.00000 0 15643181.232 -532188.851 20155884.900 10 0 60446 63900.00000 0 13657432.286 1098342.640 21533147.900 10 0 60446 64800.00000 0 11695604.811 2971730.045 22492941.952 10 0 60446 65700.00000 0 9817025.045 5052642.626 23016815.284 10 0 60446 66600.00000 0 8074392.690 7295275.006 23094751.755 10 0 60446 67500.00000 0 6511726.096 9645041.071 22725352.475 10 0 60446 68400.00000 0 5162687.104 12040642.662 21915854.027 10 0 60446 69300.00000 0 4049353.363 14416428.178 20681983.617 10 0 60446 70200.00000 0 3181487.371 16704944.493 19047654.228 10 0 60446 71100.00000 0 2556331.093 18839577.767 17044505.459 10 0 60446 72000.00000 0 2158933.479 20757174.887 14711298.365 10 0 60446 72900.00000 0 1962996.327 22400538.012 12093175.062 10 0 60446 73800.00000 0 1932202.652 23720689.543 9240796.296 10 0 60446 74700.00000 0 2021971.781 24678813.939 6209372.488 10 0 60446 75600.00000 0 2181567.612 25247795.790 3057605.818 10 0 60446 76500.00000 0 2356471.636 25413289.861 -153437.174 10 0 60446 77400.00000 0 2490921.036 25174277.951 -3361501.424 10 0 60446 78300.00000 0 2530504.912 24543088.514 -6504345.368 10 0 60446 79200.00000 0 2424708.873 23544877.247 -9520946.147 10 0 60446 80100.00000 0 2129300.045 22216589.327 -12352684.581 10 0 60446 81000.00000 0 1608450.801 20605445.715 -14944486.750 10 0 60446 81900.00000 0 836510.212 18767015.957 -17245899.650 10 0 60446 82800.00000 0 -200653.265 16762957.449 -19212079.522 10 0 60446 83700.00000 0 -1504796.480 14658515.279 -20804673.096 10 0 60446 84600.00000 0 -3064971.947 12519886.975 -21992574.006 10 0 60446 85500.00000 0 -4857739.989 10411562.382 -22752539.017 10 0 60447 0.00000 0 -6847915.831 8393750.207 -23069651.402 10 0 60447 900.00000 0 -8989823.424 6519998.060 -22937621.878 10 0 60447 1800.00000 0 -11229002.424 4835108.473 -22358920.229 10 0 60447 2700.00000 0 -13504301.676 3373434.764 -21344734.976 10 0 60447 3600.00000 0 -15750269.776 2157630.872 -19914760.711 10 0 60447 4500.00000 0 -17899743.997 1197906.363 -18096817.035 10 0 60447 5400.00000 0 -19886528.956 491817.588 -15926306.090 10 0 60447 6300.00000 0 -21648052.415 24603.042 -13445519.137 10 0 60447 7200.00000 0 -23127886.271 -229952.333 -10702805.873 10 0 60447 8100.00000 0 -24278026.291 -308161.722 -7751623.119 10 0 60447 9000.00000 0 -25060834.332 -254648.854 -4649482.161 10 0 60447 9900.00000 0 -25450561.069 -120205.653 -1456816.336 10 0 60447 10800.00000 0 -25434385.246 40612.279 1764207.906 10 0 60447 11700.00000 0 -25012926.137 172048.677 4950912.003 10 0 60447 12600.00000 0 -24200208.485 219757.907 8041333.319 10 0 60447 13500.00000 0 -23023082.546 133352.613 10975435.314 10 0 60447 14400.00000 0 -21520124.967 -131221.108 13696275.592 10 0 60447 15300.00000 0 -19740068.105 -609581.974 16151108.810 10 0 60447 16200.00000 0 -17739824.954 -1327174.170 18292403.210 10 0 60447 17100.00000 0 -15582193.408 -2297963.571 20078751.705 10 0 60447 18000.00000 0 -13333336.475 -3523624.077 21475660.853 10 0 60447 18900.00000 0 -11060143.704 -4993247.823 22456203.817 10 0 60447 19800.00000 0 -8827583.280 -6683591.139 23001526.177 10 0 60447 20700.00000 0 -6696154.049 -8559845.849 23101196.328 10 0 60447 21600.00000 0 -4719541.919 -10576903.942 22753395.078 10 0 60447 22500.00000 0 -2942576.217 -12681063.442 21964941.871 10 0 60447 23400.00000 0 -1399568.970 -14812105.332 20751157.845 10 0 60447 24300.00000 0 -113104.136 -16905656.282 19135568.657 10 0 60447 25200.00000 0 906674.717 -18895740.268 17149452.625 10 0 60447 26100.00000 0 1662250.138 -20717414.320 14831242.370 10 0 60447 27000.00000 0 2168383.411 -22309380.045 12225790.635 10 0 60447 27900.00000 0 2451249.392 -23616463.273 9383513.346 10 0 60447 28800.00000 0 2547090.165 -24591859.221 6359425.339 10 0 60447 29700.00000 0 2500444.124 -25199049.889 3212086.237 10 0 60447 30600.00000 0 2362024.773 -25413313.522 2475.859 10 0 60447 31500.00000 0 2186338.320 -25222762.538 -3207179.854 10 0 60447 32400.00000 0 2029140.340 -24628865.651 -6354610.185 10 0 60447 33300.00000 0 1944838.813 -23646431.172 -9378705.276 10 0 60447 34200.00000 0 1983953.500 -22303050.905 -12220702.645 10 0 60447 35100.00000 0 2190739.589 -20638026.561 -14825331.382 10 0 60447 36000.00000 0 2601076.981 -18700822.329 -17141891.481 10 0 60447 36900.00000 0 3240715.708 -16549107.296 -19125246.798 10 0 60447 37800.00000 0 4123953.230 -14246468.636 -20736711.837 10 0 60447 38700.00000 0 5252801.290 -11859890.573 -21944814.523 10 0 60447 39600.00000 0 6616679.538 -9457104.065 -22725919.440 10 0 60447 40500.00000 0 8192650.893 -7103917.794 -23064698.828 10 0 60447 41400.00000 0 9946190.786 -4861641.906 -22954441.453 10 0 60447 42300.00000 0 11832459.707 -2784712.291 -22397192.666 10 0 60447 43200.00000 0 13798027.101 -918614.773 -21403722.279 10 0 60447 44100.00000 0 15782975.277 701803.934 -19993320.236 10 0 60447 45000.00000 0 17723295.622 2053567.929 -18193423.568 10 0 60447 45900.00000 0 19553476.654 3126295.218 -16039081.532 10 0 60447 46800.00000 0 21209175.030 3922382.581 -13572269.217 10 0 60447 47700.00000 0 22629856.697 4456645.431 -10841063.161 10 0 60447 48600.00000 0 23761296.457 4755429.241 -7898695.479 10 0 60447 49500.00000 0 24557830.088 4855231.673 -4802505.680 10 0 60447 50400.00000 0 24984263.605 4800895.529 -1612811.646 10 0 60447 51300.00000 0 25017358.949 4643450.932 1608277.043 10 0 60447 52200.00000 0 24646833.545 4437700.084 4798079.051 10 0 60447 53100.00000 0 23875832.018 4239648.689 7894569.486 10 0 60447 54000.00000 0 22720850.957 4103894.385 10837591.445 10 0 60447 54900.00000 0 21211120.899 4081083.907 13570026.603 10 0 60447 55800.00000 0 19387472.641 4215547.284 16038901.781 10 0 60447 56700.00000 0 17300736.589 4543209.322 18196410.145 10 0 60447 57600.00000 0 15009743.098 5089866.424 20000827.838 10 0 60447 58500.00000 0 12579008.049 5869900.914 21417309.289 10 0 60447 59400.00000 0 10076200.418 6885486.430 22418547.109 10 0 60447 60300.00000 0 7569496.964 8126317.179 22985285.324 10 0 60447 61200.00000 0 5124933.244 9569871.991 23106677.524 10 0 60447 62100.00000 0 2803859.678 11182202.021 22780484.398 10 0 60447 63000.00000 0 660606.506 12919209.390 22013107.945 10 0 60447 63900.00000 0 -1259547.329 14728363.982 20819462.448 10 0 60447 64800.00000 0 -2922019.159 16550787.725 19222684.974 10 0 60447 65700.00000 0 -4304115.051 18323620.654 17253690.876 10 0 60447 66600.00000 0 -5395721.927 19982571.403 14950582.296 10 0 60447 67500.00000 0 -6199471.945 21464547.079 12357920.273 10 0 60447 68400.00000 0 -6730373.379 22710253.950 9525873.357 10 0 60447 69300.00000 0 -7014924.082 23666661.171 6509258.097 10 0 60447 70200.00000 0 -7089744.995 24289225.085 3366488.751 10 0 60447 71100.00000 0 -6999791.103 24543781.076 158455.553 10 0 60447 72000.00000 0 -6796214.946 24408023.342 -3052647.552 10 0 60447 72900.00000 0 -6533972.464 23872509.750 -6204523.518 10 0 60447 73800.00000 0 -6269272.048 22941148.455 -9235978.207 10 0 60447 74700.00000 0 -6056974.535 21631144.410 -12088108.392 10 0 60447 75600.00000 0 -5948054.273 19972406.426 -14705448.525 10 0 60447 76500.00000 0 -5987229.168 18006437.958 -17037053.696 10 0 60447 77400.00000 0 -6210860.787 15784756.587 -19037497.227 10 0 60447 78300.00000 0 -6645214.486 13366906.937 -20667762.992 10 0 60447 79200.00000 0 -7305154.528 10818149.032 -21896014.520 10 0 60447 80100.00000 0 -8193331.009 8206917.892 -22698225.283 10 0 60447 81000.00000 0 -9299894.653 5602159.893 -23058657.246 10 0 60447 81900.00000 0 -10602753.343 3070656.812 -22970177.719 10 0 60447 82800.00000 0 -12068361.262 674449.153 -22434407.647 10 0 60447 83700.00000 0 -13653008.853 -1531533.668 -21461697.796 10 0 60447 84600.00000 0 -15304560.495 -3501537.308 -20070932.694 10 0 60447 85500.00000 0 -16964567.456 -5200654.414 -18289165.602 10 0 60448 0.00000 0 -18570667.377 -6606034.667 -16151091.506 10 0 60448 900.00000 0 -20059170.074 -7707583.498 -13698367.008 10 0 60448 1800.00000 0 -21367718.108 -8508119.199 -10978793.464 10 0 60448 2700.00000 0 -22437912.252 -9022985.538 -8045375.899 10 0 60448 3600.00000 0 -23217788.194 -9279135.852 -4955279.526 10 0 60448 4500.00000 0 -23664040.114 -9313729.904 -1768704.176 10 0 60448 5400.00000 0 -23743896.605 -9172304.650 1452300.093 10 0 60448 6300.00000 0 -23436569.473 -8906598.392 4645051.858 10 0 60448 7200.00000 0 -22734214.323 -8572122.333 7747466.677 10 0 60448 8100.00000 0 -21642362.804 -8225584.106 10699269.960 10 0 60448 9000.00000 0 -20179808.964 -7922273.687 13443170.068 10 0 60448 9900.00000 0 -18377955.349 -7713523.193 15925968.460 10 0 60448 10800.00000 0 -16279647.207 -7644348.381 18099585.474 10 0 60448 11700.00000 0 -13937544.446 -7751371.344 19921982.459 10 0 60448 12600.00000 0 -11412100.025 -8061111.585 21357963.325 10 0 60448 13500.00000 0 -8769229.338 -8588716.687 22379841.347 10 0 60448 14400.00000 0 -6077767.432 -9337185.152 22967959.796 10 0 60448 15300.00000 0 -3406819.050 -10297113.252 23111057.856 10 0 60448 16200.00000 0 -823110.382 -11446975.991 22806476.120 10 0 60448 17100.00000 0 1611549.256 -12753930.197 22060198.840 10 0 60448 18000.00000 0 3842592.369 -14175106.321 20886732.838 10 0 60448 18900.00000 0 5824710.499 -15659335.528 19308825.744 10 0 60448 19800.00000 0 7523481.990 -17149240.805 17357028.845 10 0 60448 20700.00000 0 8916544.537 -18583605.850 15069112.481 10 0 60448 21600.00000 0 9994265.351 -19899923.933 12489344.420 10 0 60448 22500.00000 0 10759882.230 -21037021.356 9667644.050 10 0 60448 23400.00000 0 11229110.528 -21937646.640 6658627.619 10 0 60448 24300.00000 0 11429232.935 -22550917.669 3520561.827 10 0 60448 25200.00000 0 11397710.406 -22834524.435 314244.975 10 0 60448 26100.00000 0 11180372.508 -22756594.712 -2898163.426 10 0 60448 27000.00000 0 10829263.142 -22297143.670 -6054342.502 10 0 60448 27900.00000 0 10400232.200 -21449045.364 -9093016.359 10 0 60448 28800.00000 0 9950374.614 -20218483.844 -11955143.539 10 0 60448 29700.00000 0 9535424.991 -18624863.168 -14585066.340 10 0 60448 30600.00000 0 9207218.166 -16700178.211 -16931597.368 10 0 60448 31500.00000 0 9011323.530 -14487870.808 -18949021.705 10 0 60448 32400.00000 0 8984953.934 -12041217.349 -20597994.703 10 0 60448 33300.00000 0 9155238.583 -9421313.775 -21846317.378 10 0 60448 34200.00000 0 9537934.163 -6694740.943 -22669573.647 10 0 60448 35100.00000 0 10136630.029 -3931006.935 -23051616.425 10 0 60448 36000.00000 0 10942482.506 -1199872.396 -22984892.423 10 0 60448 36900.00000 0 11934490.916 1431329.821 -22470598.660 10 0 60448 37800.00000 0 13080305.027 3900269.064 -21518666.977 10 0 60448 38700.00000 0 14337530.909 6151977.934 -20147576.243 10 0 60448 39600.00000 0 15655480.869 8140901.405 -18383995.353 10 0 60448 40500.00000 0 16977294.025 9832548.469 -16262263.650 10 0 60448 41400.00000 0 18242338.047 11204677.541 -13823718.675 10 0 60448 42300.00000 0 19388790.284 12247966.534 -11115884.518 10 0 60448 43200.00000 0 20356288.668 12966140.467 -8191536.988 10 0 60448 44100.00000 0 21088539.558 13375552.620 -5107664.514 10 0 60448 45000.00000 0 21535771.457 13504238.555 -1924346.072 10 0 60448 45900.00000 0 21656930.112 13390484.867 1296430.830 10 0 60448 46800.00000 0 21421521.661 13080975.231 4491987.851 10 0 60448 47700.00000 0 20811025.656 12628594.160 7600184.181 10 0 60448 48600.00000 0 19819818.357 12089983.281 10560630.670 10 0 60448 49500.00000 0 18455567.677 11522955.040 13315865.336 10 0 60448 50400.00000 0 16739083.697 10983874.341 15812467.052 10 0 60448 51300.00000 0 14703631.702 10525119.353 18002085.872 10 0 60448 52200.00000 0 12393737.188 10192728.761 19842370.613 10 0 60448 53100.00000 0 9863533.339 10024334.257 21297776.637 10 0 60448 54000.00000 0 7174720.188 10047464.560 22340239.522 10 0 60448 54900.00000 0 4394220.286 10278291.246 22949703.063 10 0 60448 55800.00000 0 1591627.790 10720868.011 23114492.886 10 0 60448 56700.00000 0 -1163444.177 11366894.292 22831529.884 10 0 60448 57600.00000 0 -3804009.358 12196012.468 22106380.446 10 0 60448 58500.00000 0 -6268239.419 13176625.835 20953143.300 10 0 60448 59400.00000 0 -8501777.295 14267203.219 19394175.479 10 0 60448 60300.00000 0 -10459738.904 15418016.092 17459662.569 10 0 60448 61200.00000 0 -12108321.980 16573236.310 15187041.051 10 0 60448 62100.00000 0 -13425956.840 17673307.645 12620283.039 10 0 60448 63000.00000 0 -14403952.523 18657492.863 9809056.141 10 0 60448 63900.00000 0 -15046612.311 19466490.546 6807773.548 10 0 60448 64800.00000 0 -15370814.357 20045012.611 3674551.564 10 0 60448 65700.00000 0 -15405075.273 20344214.691 470093.719 10 0 60448 66600.00000 0 -15188135.891 20323877.192 -2743477.744 10 0 60448 67500.00000 0 -14767128.437 19954244.791 -5903820.887 10 0 60448 68400.00000 0 -14195401.965 19217446.019 -8949580.741 10 0 60448 69300.00000 0 -13530097.428 18108431.777 -11821580.159 10 0 60448 70200.00000 0 -12829574.518 16635391.579 -14463971.651 10 0 60448 71100.00000 0 -12150798.875 14819628.021 -16825327.467 10 0 60448 72000.00000 0 -11546800.253 12694892.661 -18859646.326 10 0 60448 72900.00000 0 -11064309.416 10306209.089 -20527256.652 10 0 60448 73800.00000 0 -10741674.274 7708230.533 -21795598.239 10 0 60448 74700.00000 0 -10607144.111 4963199.082 -22639866.448 10 0 60448 75600.00000 0 -10677595.387 2138590.414 -23043505.824 10 0 60448 76500.00000 0 -10957753.992 -695458.637 -22998542.825 10 0 60448 77400.00000 0 -11439947.895 -3468832.980 -22505750.534 10 0 60448 78300.00000 0 -12104401.641 -6114121.093 -21574641.482 10 0 60448 79200.00000 0 -12920061.106 -8569184.055 -20223288.091 10 0 60448 80100.00000 0 -13845914.310 -10779504.520 -18477973.725 10 0 60448 81000.00000 0 -14832752.752 -12700217.571 -16372680.755 10 0 60448 81900.00000 0 -15825298.841 -14297738.629 -13948425.441 10 0 60448 82800.00000 0 -16764609.073 -15550920.592 -11252452.704 10 0 60448 83700.00000 0 -17590650.646 -16451692.364 -8337306.867 10 0 60448 84600.00000 0 -18244941.623 -17005152.997 -5259797.191 10 0 60448 85500.00000 0 -18673141.900 -17229118.889 -2079879.333 99